Regional Weather Roundup
Issued by NWS Albany, NY

Home | Current Version | Previous Version | Text Only | Print | Product List | Glossary On
Versions: 1 2 3 4 5 6 7 8 9 10 11 12 13 14 15 16 17 18 19 20 21 22 23 24 25 26 27 28 29 30 31 32 33 34 35 36 37 38 39 40 41 42 43 44 45 46 47 48 49 50
489
ASUS41 KALY 200810
RWRALY

NEW YORK STATE HOURLY WEATHER ROUNDUP
NATIONAL WEATHER SERVICE ALBANY NY
400 AM EDT SUN AUG 20 2017

NOTE: "FAIR" INDICATES FEW OR NO CLOUDS BELOW 12,000 FEET WITH NO
SIGNIFICANT WEATHER AND/OR NO OBSTRUCTIONS TO VISIBILITY.

NYZ032-033-038>043-046>054-057>066-NYZ062>081-082-084-200900-
EAST


CITY           SKY/WX    TMP DP  RH WIND       PRES   REMARKS
ALBANY         MOCLDY    65  59  81 CALM      29.92R
GLENS FALLS    CLEAR     62  59  90 S3        29.88S
POUGHKEEPSIE   PTCLDY    67  60  78 SW3       29.92R
NEWBURGH       PTCLDY    64  63  94 W12       29.95R
MONTGOMERY     CLEAR     63  60  90 S3        29.94R
WHITE PLAINS   CLEAR     70  60  70 W9        29.92R
ISLIP          CLEAR     72  66  81 NW9       29.90R
NEW YORK CITY  CLEAR     74  64  71 NW9       29.92R
CENTRAL PARK   CLEAR     72  62  71 W7        29.96R
$$

NYZ005>009-017-018-044>046-055-056-200900-
CENTRAL


CITY           SKY/WX    TMP DP  RH WIND       PRES   REMARKS
FULTON         MOCLDY    67  61  81 NW7       29.96R
SYRACUSE       MOCLDY    64  63  96 W9        29.96R
ROME           MOCLDY    64  63  96 W6        29.95R
ELMIRA         CLEAR     59  59 100 W3        30.02R FOG
BINGHAMTON     MOCLDY    58  58 100 SW5       30.01R
MONTICELLO     PTCLDY    60  59  96 W9        30.00R
$$

NYZ026>034-041>043-087-200900-
NORTH


CITY           SKY/WX    TMP DP  RH WIND       PRES   REMARKS
WATERTOWN      CLOUDY    65  62  90 NW6       29.94R
FORT DRUM      NOT AVBL
OGDENSBURG     MOCLDY    63  60  90 W5        29.91R
MASSENA        CLOUDY    65  62  90 W8        29.90R
SARANAC LAKE   CLOUDY    60  59  96 VRB6      29.91R
PLATTSBURGH    LGT RAIN  66  61  84 NW5       29.85R
$$

NYZ001>004-010>016-019>021-085-200900-
WEST


CITY           SKY/WX    TMP DP  RH WIND       PRES   REMARKS
NIAGARA FALLS  PTCLDY    62  56  80 S3        30.01R
BUFFALO        PTCLDY    62  56  80 W3        30.02R
DUNKIRK        CLEAR     62  57  83 S6        30.03R
JAMESTOWN      CLEAR     57  55  94 SW6       30.07S
WELLSVILLE     CLEAR     59  55  87 W7        30.08R
ROCHESTER      MOCLDY    63  58  83 W7        30.01R
PENN YAN       PTCLDY    64  56  75 W7        30.02R
$$

             KEY
       WCI = WIND CHILL INDEX
       VSB = VISIBILITY
       HX  = HEAT INDEX
$$




USA.gov is the U.S. government's official web portal to all federal, state and local government web resources and services.